Location: ScottNC Observatory
(36.0892°N, 80.4832°W)
Time: 01:28:11
(UTC-05:00)

OTV 5 (USA 277) - Visible Passes

Search period start: 18 November 2018 00:00
Search period end: 28 November 2018 00:00
Orbit: 339 x 348 km, 54.5° (Epoch: 14 November)

Date Brightness Start Highest point End Pass type
(mag) Time Alt. Az. Time Alt. Az. Time Alt. Az.
24 Nov ? 06:09:02 10° SSW 06:11:43 36° SE 06:14:23 10° ENE visible
25 Nov ? 06:32:22 10° WSW 06:35:09 46° NW 06:37:56 10° NNE visible
26 Nov ? 05:23:19 31° SSE 05:23:51 34° SE 05:26:30 10° ENE visible
27 Nov ? 05:47:26 48° NNW 05:47:26 48° NNW 05:50:04 10° NE visible
